Lapse_Rate
3.7 3.6 3.7 4.0 4.0 3.7 4.3 4.6 3.9 3.6 3.4 3.6 3.6 3.5 3.1 3.2 2.8 2.6 2.3 1.6 1.2 0.8 0.1 -0.0 0.5 0.7 2.4 8.0 7.9 6.0 5.2 4.6 6.6 9.5 8.7 8.2 7.6 7.3 6.5 6.7 6.9 6.5 6.5 7.1 7.3 7.2 7.2
3.7 3.7 3.6 3.3 3.1 3.5 4.0 4.7 4.2 4.1 3.5 3.5 3.7 3.8 3.6 3.3 3.2 2.8 2.6 1.9 1.2 0.9 0.6 0.2 0.6 0.8 6.1 6.9 9.4 9.3 8.7 9.0 9.5 9.2 8.7 8.5 7.9 8.0 7.1 6.8 6.6 7.0 6.9 6.9 7.1 7.1 7.2
4.8 4.4 3.8 3.5 3.3 3.3 3.1 3.4 3.6 4.5 3.8 3.7 3.9 3.8 3.9 3.5 3.4 3.1 2.7 2.4 1.5 0.7 0.6 0.8 1.2 3.7 8.1 7.8 9.8 9.7 9.7 9.5 9.6 9.2 8.4 8.8 8.7 7.8 7.5 6.5 7.5 7.1 6.5 6.5 6.6 6.9 6.6
5.7 5.8 5.1 4.3 3.4 3.5 3.5 3.6 4.2 4.1 4.3 4.2 4.0 3.6 4.0 3.6 3.5 3.1 2.8 2.6 1.9 1.4 1.1 1.3 1.3 5.9 7.7 9.6 9.4 9.7 9.8 9.4 9.7 9.6 9.2 9.2 9.1 8.1 7.5 7.7 7.0 6.5 6.5 6.5 6.5 6.6 6.8
5.3 5.7 6.4 6.1 5.8 4.5 3.8 4.0 4.2 4.6 4.3 4.6 4.0 4.3 4.1 3.7 3.5 3.3 3.1 2.5 2.2 1.8 2.2 2.2 4.2 6.7 7.4 6.7 8.1 9.6 9.7 8.8 9.1 9.2 9.2 9.3 8.6 7.5 7.3 6.5 6.5 6.5 6.5 6.5 6.5 6.6 6.5
6.4 5.7 5.5 6.3 6.7 7.3 6.4 4.4 4.7 4.7 4.9 4.8 5.2 4.4 3.8 3.4 3.4 3.6 3.2 3.0 3.4 2.5 3.9 7.4 9.2 7.8 8.3 7.9 9.0 9.3 9.7 9.3 8.5 8.4 8.0 7.8 7.4 6.5 6.5 6.5 6.5 6.5 6.5 6.5 6.5 6.5 6.5
8.5 7.9 5.8 5.3 6.4 6.9 7.7 7.5 6.1 5.3 5.2 5.1 5.1 5.0 4.0 3.7 3.5 3.6 3.4 4.9 5.8 7.6 7.5 7.6 7.6 7.6 8.0 8.9 9.3 8.8 9.3 8.7 8.5 7.7 6.5 7.0 6.5 6.5 6.5 6.5 6.5 6.5 6.5 6.5 6.5 6.5 6.5
8.7 8.7 7.8 6.4 5.3 5.7 6.5 7.3 7.4 6.3 5.6 5.3 5.3 5.4 5.0 4.1 3.2 2.9 4.4 7.5 7.6 7.0 7.0 8.1 8.4 8.3 8.7 8.9 7.6 8.3 9.2 7.5 7.1 6.5 6.6 6.5 6.5 6.5 6.5 6.5 6.5 6.5 6.5 6.5 6.5 6.5 6.5
9.0 8.7 8.6 7.8 6.3 5.1 5.5 5.5 5.4 5.4 5.2 5.4 5.3 5.9 5.4 4.5 3.2 4.2 6.0 7.3 7.7 7.5 6.7 7.4 8.1 8.0 8.2 8.5 7.5 7.6 8.4 7.8 6.7 6.5 6.5 6.5 6.5 6.5 6.5 6.5 6.5 6.5 6.5 6.5 6.5 6.5 6.5
8.5 8.6 8.4 8.3 6.8 6.3 6.7 7.3 5.6 5.5 5.2 5.3 5.6 5.8 6.5 4.7 4.1 5.5 5.9 8.7 8.7 7.9 6.5 6.5 6.8 7.7 8.3 8.2 6.9 8.6 8.6 7.7 6.6 6.5 6.5 6.5 6.6 6.5 6.5 6.5 6.5 6.5 6.5 6.5 6.5 6.5 6.5
8.7 8.9 8.4 6.9 5.6 5.1 5.1 5.3 5.2 4.7 4.7 4.8 5.0 5.6 6.2 6.4 7.2 6.8 7.0 8.7 8.1 8.1 6.5 6.5 6.8 8.9 8.3 7.2 7.3 7.4 8.7 7.7 6.5 6.5 6.5 6.5 6.5 6.5 6.5 6.5 6.5 6.5 6.5 6.5 6.5 6.5 6.5
8.8 8.5 8.2 7.3 5.8 4.5 4.1 4.1 4.3 4.1 3.6 4.4 4.7 5.2 6.3 6.6 7.0 7.7 8.2 8.5 7.5 6.5 6.5 6.5 6.8 6.6 6.6 7.1 7.0 7.5 7.5 8.1 7.7 6.5 6.5 6.5 7.0 6.5 6.5 6.5 6.5 6.5 6.5 6.5 6.5 6.5 6.5
8.2 8.0 7.6 6.9 5.8 4.6 3.8 3.5 3.6 3.8 3.9 4.5 4.6 5.0 5.8 7.9 6.8 8.7 8.0 7.7 6.5 6.5 6.5 6.5 6.5 6.5 6.5 6.5 6.5 6.5 6.5 6.5 6.5 6.5 6.5 6.5 6.5 6.5 6.7 6.5 6.5 6.5 6.5 6.5 6.5 6.5 6.5
7.7 7.5 7.1 6.3 5.5 4.3 3.8 2.8 2.9 3.5 4.6 4.3 4.5 5.7 5.8 8.7 8.1 8.0 7.7 6.5 6.5 6.5 6.5 6.5 6.5 6.5 6.5 6.5 6.5 6.5 6.5 6.5 6.5 6.5 6.5 6.5 6.5 6.5 6.5 6.5 6.5 6.5 6.5 6.5 6.5 6.5 6.5
7.6 7.3 6.9 6.1 5.0 4.0 3.2 2.7 3.1 3.6 4.0 5.0 6.1 5.6 5.4 7.6 8.0 8.2 6.6 6.5 6.5 6.5 6.5 6.5 6.5 6.5 6.5 6.5 6.5 6.5 6.5 6.5 6.5 6.5 6.5 6.5 6.5 6.5 6.5 6.5 6.5 6.5 6.5 6.5 6.5 6.5 6.5
7.4 7.1 6.8 6.2 4.9 3.6 3.0 3.0 3.1 3.5 4.1 5.2 5.7 6.0 6.0 6.9 8.6 7.4 6.5 6.5 6.5 6.5 6.5 6.5 6.5 6.5 6.5 6.5 6.5 6.5 6.5 6.5 6.5 6.5 6.6 6.5 6.5 6.5 6.5 6.6 6.6 6.5 6.5 6.5 6.5 6.5 6.5
7.1 6.9 6.6 6.5 5.8 4.0 3.4 3.1 3.3 4.1 4.6 4.7 5.5 6.3 6.0 6.8 7.4 6.7 6.5 6.5 6.5 7.1 7.0 6.5 6.5 6.5 6.5 6.5 6.5 6.5 6.5 6.5 6.5 6.5 6.6 6.5 6.5 6.5 6.5 6.5 6.5 6.5 6.5 6.5 6.5 6.5 6.5
7.2 6.7 6.7 6.5 6.7 5.6 3.3 2.9 3.0 3.5 4.5 5.4 6.4 6.5 6.4 7.1 6.5 6.4 6.5 6.5 6.6 6.6 7.3 6.5 6.5 6.5 6.5 6.5 6.5 6.5 6.5 6.5 6.9 6.7 6.5 6.5 6.5 6.5 6.5 6.5 6.5 6.5 6.5 6.5 6.5 6.5 6.5
7.1 6.7 6.4 6.6 6.8 6.6 3.9 3.1 3.8 4.7 4.5 6.0 6.1 6.5 6.2 7.4 6.5 6.5 6.5 6.5 6.6 6.5 6.5 6.5 6.5 6.5 6.5 6.5 6.5 6.5 6.5 6.7 6.9 6.5 6.5 6.5 6.5 6.5 6.5 6.5 6.5 6.5 6.5 6.5 6.5 6.5 6.5
7.0 6.6 6.6 6.9 5.9 5.5 5.1 3.8 4.7 5.4 6.6 5.4 5.9 6.5 6.2 6.4 5.7 6.5 6.5 6.5 6.5 7.1 6.5 6.8 6.5 6.6 6.5 6.5 6.5 6.5 6.5 6.5 7.0 6.7 5.6 6.6 6.5 6.5 6.5 6.5 6.5 6.5 6.5 6.5 6.5 6.5 6.5
6.9 6.6 6.5 7.0 5.6 5.7 5.9 6.1 6.3 6.5 6.6 6.6 6.6 6.6 7.2 6.5 6.6 6.5 6.5 6.5 6.5 6.5 6.7 6.9 6.5 6.5 6.5 6.5 6.5 6.5 6.5 6.5 6.7 6.6 6.7 6.5 6.5 6.5 6.5 6.5 6.5 6.5 6.5 6.5 6.5 6.5 6.5
6.8 6.6 6.7 6.9 6.3 6.4 5.9 6.1 6.5 6.3 6.4 6.0 6.0 6.8 7.7 7.0 7.1 6.5 6.5 6.5 6.5 6.5 6.5 6.5 6.5 6.5 6.5 6.5 6.5 6.5 6.5 6.5 6.5 6.5 6.5 6.5 6.5 6.5 6.5 6.5 6.5 6.5 6.5 6.5 6.5 6.5 6.5
7.1 6.8 6.7 6.8 6.7 6.6 6.0 5.9 6.0 5.9 6.2 6.7 7.3 8.7 7.8 6.7 6.5 6.5 6.5 6.5 6.5 6.5 6.7 6.8 6.5 6.5 6.5 6.5 6.9 7.0 7.0 6.9 6.6 6.5 6.5 6.5 6.5 6.5 6.5 6.5 6.5 6.5 6.5 6.5 6.5 6.5 6.5
7.0 6.8 7.4 7.1 6.7 6.7 6.5 6.3 5.8 5.9 6.0 6.6 6.7 6.4 6.9 6.5 6.5 6.5 6.5 6.5 6.5 6.5 6.5 6.7 6.9 6.5 7.0 7.2 7.5 7.4 7.1 6.9 6.8 6.6 6.8 6.5 6.5 6.5 6.5 6.5 6.5 6.5 6.5 6.5 6.5 6.5 6.5
6.8 7.3 7.5 7.2 7.4 6.5 6.3 6.3 6.0 6.4 6.2 6.7 6.8 7.3 7.1 6.5 6.5 6.5 6.5 6.5 6.8 6.9 6.6 6.7 7.1 7.4 7.7 7.3 6.5 6.5 6.5 6.5 6.5 6.5 6.5 6.5 6.5 6.5 6.5 6.5 6.5 6.5 6.5 6.5 6.5 6.5 6.5
7.2 7.5 7.1 7.3 7.5 7.0 6.4 6.0 6.2 6.6 6.1 6.0 8.7 8.4 7.7 6.6 6.5 7.3 6.6 6.9 6.5 6.5 6.5 6.8 7.8 8.1 7.7 6.5 6.5 6.5 6.5 6.5 6.5 6.5 6.5 6.5 6.5 6.5 6.5 6.5 6.5 6.5 6.5 7.0 6.6 6.5 6.7
7.3 7.6 7.0 6.8 6.9 6.8 6.3 5.9 6.4 6.8 6.7 6.8 7.7 8.4 7.0 6.8 7.7 7.8 6.6 6.7 7.3 6.7 6.5 6.7 7.0 6.9 7.4 6.5 6.5 6.5 6.5 6.5 6.5 6.5 6.5 6.5 6.5 6.5 6.5 6.5 6.5 6.5 6.7 7.1 6.5 6.5 6.9
7.3 7.5 7.3 7.1 6.7 6.6 6.6 6.4 6.7 6.7 7.2 6.8 8.3 7.8 8.1 6.9 7.1 7.9 8.1 7.1 7.2 7.0 6.5 6.8 6.8 6.8 6.5 6.5 6.5 6.5 6.5 6.5 6.5 6.5 6.5 6.5 6.5 6.5 6.5 6.5 6.5 6.9 6.7 6.5 6.6 7.2 7.3
7.6 7.2 7.4 7.2 7.4 6.9 7.0 6.9 6.5 5.9 5.3 5.7 8.1 7.5 8.2 8.0 7.9 7.3 6.9 7.2 7.7 7.7 7.3 7.2 6.8 6.7 6.8 6.5 6.5 6.5 6.5 6.5 6.5 6.5 6.5 6.5 6.5 6.5 6.5 6.5 6.7 7.2 6.9 7.5 7.7 7.3 7.4
Wind_Speed
7 7 9 9 9 12 21 22 21 21 21 20 19 16 14 12 10 8 9 11 14 15 13 13 17 22 14 8 4 8 5 8 9 7 5 7 9 9 10 12 10 13 15 15 12 9 10
8 7 7 7 7 8 12 19 22 22 22 21 20 18 17 14 11 9 8 11 13 14 16 15 15 17 7 12 6 5 1 5 5 6 6 6 6 9 9 13 12 16 13 15 16 16 14
10 10 9 8 7 9 9 9 12 22 22 21 21 20 18 16 12 9 9 10 14 15 16 17 15 7 11 14 2 4 3 4 3 4 6 4 5 7 10 11 6 10 14 16 18 12 2
9 11 12 11 8 7 7 8 9 9 18 23 21 21 20 19 15 11 8 10 13 17 16 16 9 8 7 3 5 5 8 7 5 6 6 8 6 10 13 10 14 17 17 15 11 10 9
10 11 14 14 12 11 9 7 9 10 10 11 21 22 22 21 17 11 8 11 14 15 12 9 5 7 10 3 8 11 6 6 3 4 5 5 5 8 10 10 11 16 12 11 6 12 4
13 13 14 16 16 15 15 11 8 8 10 11 10 18 21 20 17 12 8 9 11 9 8 10 11 8 13 7 8 5 8 5 7 6 6 8 6 8 9 10 10 10 8 13 14 13 11
13 14 14 15 16 15 14 14 11 10 9 10 12 14 22 22 19 13 3 6 5 5 9 9 8 7 1 3 7 8 10 8 8 8 12 16 8 11 15 4 8 8 11 14 13 11 12
12 15 16 15 16 18 19 17 15 15 12 11 11 12 21 22 18 14 2 4 1 3 5 11 21 20 11 7 9 12 10 8 12 13 16 11 14 15 3 2 6 9 11 13 13 10 12
13 14 15 16 20 20 21 20 13 11 12 14 11 9 15 18 19 6 7 2 2 3 2 11 14 18 15 11 16 14 15 14 13 13 16 15 9 5 4 7 10 12 12 11 12 13 15
12 15 14 17 20 20 19 19 17 15 14 15 15 13 15 21 8 6 6 6 5 2 1 6 8 12 19 13 14 21 15 14 11 14 16 15 16 9 9 10 9 11 3 5 11 9 9
15 15 16 18 21 21 21 24 22 20 19 20 20 18 21 30 4 8 7 13 7 2 7 2 9 3 11 16 3 12 11 9 15 15 7 9 12 8 12 13 4 8 5 8 12 12 14
17 18 18 20 22 24 24 26 26 24 21 27 24 21 31 18 4 7 20 15 4 2 7 6 3 8 14 19 13 10 12 9 9 16 16 18 4 6 11 7 6 7 10 15 15 12 11
19 18 20 22 24 26 27 28 27 26 29 29 24 24 31 21 8 22 21 8 3 7 6 13 9 12 17 18 21 15 14 16 10 6 13 18 20 15 9 9 11 9 10 5 5 7 10
19 19 21 24 27 27 30 29 30 33 33 30 27 27 33 20 22 30 10 2 11 13 23 3 15 16 17 19 16 17 15 16 19 17 11 12 13 19 13 17 8 16 9 5 5 7 11
19 21 22 24 26 29 29 32 37 38 35 32 27 13 14 14 35 17 9 8 10 21 15 21 15 17 17 18 7 14 17 17 18 18 8 7 12 13 14 10 7 7 8 7 8 13 10
21 22 23 26 28 30 32 36 41 40 36 32 13 11 16 23 30 12 9 22 14 18 22 17 21 16 18 22 10 6 9 11 17 3 6 5 4 4 12 9 11 11 2 3 5 4 7
20 22 25 27 27 32 36 40 41 35 30 28 9 9 9 29 10 10 10 14 17 22 14 23 20 16 17 14 14 15 7 8 6 6 3 4 2 4 11 8 14 9 9 8 8 9 5
18 20 22 24 29 33 33 37 33 26 33 21 10 6 15 18 10 7 12 18 16 18 22 17 16 12 13 17 15 8 12 6 8 12 11 4 3 4 11 8 8 8 9 10 5 7 7
18 17 19 19 25 15 26 22 19 31 43 11 6 4 8 18 12 10 11 14 14 21 17 13 11 8 4 3 5 3 6 3 9 9 4 6 4 3 6 6 6 5 5 5 5 3 9
14 13 14 10 16 23 27 32 25 23 13 3 5 6 4 7 3 17 16 16 14 20 18 10 7 6 5 3 2 6 8 6 7 6 6 3 5 10 3 3 2 2 4 8 11 6 5
13 11 8 7 8 15 21 24 24 22 12 3 1 5 8 11 7 16 20 15 23 19 15 19 9 10 10 4 5 5 11 10 8 9 5 3 5 1 4 3 6 3 2 5 5 5 5
13 12 8 11 6 9 15 19 21 22 19 2 1 6 10 17 15 15 18 21 23 21 18 23 10 18 16 8 9 9 13 12 7 11 9 6 3 3 3 5 2 3 5 7 1 4 7
16 13 10 11 14 8 6 10 15 20 15 2 4 10 9 14 18 11 11 18 17 13 11 14 7 12 17 9 12 13 12 10 4 13 11 6 6 6 5 9 9 7 6 2 4 4 7
13 13 12 11 9 16 9 3 7 10 13 2 3 3 5 12 13 13 18 18 19 14 8 9 10 9 6 12 11 10 6 7 6 10 10 9 11 7 2 8 6 2 7 6 7 5 10
13 12 12 14 12 6 8 5 10 11 10 2 2 2 2 6 11 11 16 14 15 9 7 14 10 9 9 10 6 8 4 5 8 10 9 8 5 3 3 9 4 4 10 9 9 6 10
15 12 10 13 15 10 14 9 11 15 12 4 3 1 3 6 9 19 19 20 11 14 10 9 9 5 6 4 6 6 6 8 8 8 10 7 8 4 6 5 3 6 12 10 5 6 11
15 14 11 11 15 16 10 10 13 9 8 4 3 4 3 3 13 18 15 16 15 9 6 8 6 4 4 4 6 5 6 11 7 10 8 9 8 10 7 6 4 5 9 3 5 3 13
16 15 16 17 14 10 9 9 6 7 9 3 2 3 3 2 5 14 14 16 12 7 7 11 6 4 2 5 5 4 1 4 3 1 10 9 6 6 6 7 4 9 6 4 4 9 8
15 17 16 16 16 6 3 3 6 13 16 5 4 6 4 6 9 15 15 12 8 11 7 11 3 10 5 4 4 4 2 0 6 3 2 1 3 2 4 2 2 5 2 8 8 9 8
Wind_Direction
307 308 309 304 318 348 246 232 227 221 218 221 220 216 218 233 245 258 278 293 307 312 317 320 318 323 323 252 265 131 188 207 229 250 290 318 301 306 282 310 306 280 270 275 275 294 275
275 286 301 322 330 332 355 249 229 222 221 221 220 214 213 220 234 245 266 287 298 307 312 312 312 322 263 279 96 145 213 243 253 286 281 278 319 325 288 275 278 296 301 283 280 276 271
270 271 264 264 296 317 332 327 275 224 220 218 218 212 208 213 226 241 265 285 301 305 306 303 303 291 275 258 309 190 208 271 309 295 294 327 302 292 323 290 334 297 283 280 263 248 329
310 309 287 268 254 272 298 323 316 338 232 219 211 211 205 205 214 223 255 284 295 297 300 293 283 278 260 110 290 233 228 244 234 277 273 282 283 273 267 279 288 263 260 269 107 163 209
298 300 300 301 258 248 257 279 306 318 317 272 214 207 204 197 204 215 245 282 291 292 288 277 245 204 272 113 218 224 228 245 287 265 259 294 266 252 274 244 276 234 246 227 217 214 327
289 293 296 295 292 265 250 243 258 284 307 315 284 218 198 191 191 194 240 271 281 291 237 216 256 283 228 239 192 197 208 243 248 240 257 235 233 236 222 231 252 335 303 311 300 300 314
281 286 286 287 291 292 288 266 249 258 279 290 299 248 200 188 181 184 181 268 273 224 233 225 182 256 241 170 110 212 208 214 235 240 243 211 242 242 246 16 339 309 294 282 280 290 302
273 282 282 279 283 283 279 273 269 262 263 265 283 296 210 180 168 169 146 256 228 60 313 267 255 269 265 196 237 231 184 223 210 240 230 238 248 251 50 301 295 274 266 269 272 290 305
280 283 281 287 287 278 271 264 261 268 272 258 252 270 193 168 142 165 197 220 93 128 339 287 261 245 233 228 248 241 184 223 251 243 254 232 278 116 238 266 256 247 252 280 301 312 285
270 282 282 289 282 285 269 252 251 258 264 270 266 240 202 149 131 170 208 168 180 302 319 258 236 241 225 201 257 241 178 218 235 248 254 256 253 213 238 249 245 262 39 310 287 287 281
272 272 277 284 281 274 271 258 252 251 256 264 263 250 179 162 180 188 185 154 187 187 259 2 207 242 198 179 123 203 171 216 240 227 241 246 220 211 235 244 183 252 352 287 280 274 282
276 274 274 279 280 272 271 263 255 246 251 262 257 240 182 196 228 194 138 149 108 160 235 224 167 196 216 204 218 159 184 253 247 255 231 243 270 270 252 229 216 292 282 266 243 246 255
274 275 281 283 282 274 272 269 256 254 257 255 244 228 175 182 195 149 147 143 117 229 86 213 209 207 211 209 226 207 198 205 210 200 229 237 240 225 227 240 212 230 265 290 222 216 239
277 283 286 288 284 277 277 269 263 264 262 250 234 217 187 192 164 151 165 108 231 240 220 176 194 203 209 207 216 221 230 224 221 248 295 233 221 209 187 226 257 207 255 270 306 289 311
281 285 290 293 290 283 278 274 271 266 260 250 219 204 186 192 164 161 156 206 224 233 224 216 193 203 206 214 197 207 229 237 229 210 233 321 242 171 161 204 220 222 230 266 291 287 267
280 287 293 296 288 287 283 277 269 267 264 250 198 176 189 176 168 165 183 222 229 232 243 220 207 196 199 200 164 193 227 237 239 166 224 327 285 182 176 213 238 247 238 263 234 268 262
277 286 293 293 292 292 285 274 267 262 249 188 155 159 161 155 146 170 199 219 225 251 255 228 203 203 208 190 188 197 213 236 147 166 161 265 255 241 226 201 246 191 228 231 262 256 273
273 285 296 300 300 298 293 281 271 232 160 145 155 150 160 155 162 195 207 215 221 227 227 201 201 209 213 189 184 215 225 263 172 189 205 207 80 263 225 254 279 211 234 247 232 259 278
270 284 298 308 315 2 0 295 244 168 153 135 119 103 168 169 180 190 195 209 234 210 203 180 207 196 139 133 157 154 235 188 176 202 195 159 170 228 218 216 196 226 200 254 223 201 254
259 276 297 298 335 25 22 37 69 119 118 63 123 131 135 203 317 186 182 193 204 204 185 176 164 107 120 136 79 182 191 185 169 165 76 304 256 253 332 17 133 211 330 317 276 252 276
246 260 270 244 10 41 33 43 43 32 19 3 88 140 159 188 197 189 181 186 190 181 186 187 148 176 157 144 190 210 186 161 199 149 192 215 270 329 304 103 77 48 329 319 276 301 250
229 235 242 225 120 49 64 39 29 15 357 67 123 143 169 159 191 181 176 196 185 183 180 188 180 191 185 166 193 178 184 177 179 176 209 194 231 141 272 245 189 199 227 241 172 120 112
223 228 226 234 186 158 83 49 26 3 353 9 285 150 156 166 178 171 185 179 183 153 198 180 193 176 197 203 203 179 179 184 211 173 185 194 211 187 250 191 226 234 200 189 167 60 181
211 216 217 219 227 198 143 95 12 341 349 314 310 40 126 162 180 180 176 175 146 179 171 164 220 165 98 88 76 100 124 174 181 176 198 210 206 211 304 166 228 93 181 181 142 121 107
208 205 210 214 204 212 163 203 309 301 309 287 326 16 74 139 162 149 162 153 151 182 196 203 167 136 137 144 131 137 160 188 215 223 207 228 220 255 230 217 104 191 198 172 178 171 153
198 198 224 201 195 191 164 231 279 296 319 286 193 253 209 137 185 159 158 162 170 190 184 80 81 118 166 214 189 186 174 198 178 182 199 226 249 254 289 264 254 83 167 200 204 209 182
186 185 149 137 173 179 188 235 261 296 300 294 321 183 250 152 167 177 176 166 176 152 141 143 137 164 233 218 208 215 228 196 158 185 184 206 212 226 246 267 94 130 122 144 210 118 160
184 176 159 150 141 152 179 235 273 282 286 260 263 219 152 94 151 173 168 182 155 149 144 158 162 186 191 202 207 236 3 213 157 259 170 185 207 201 233 240 177 124 148 236 95 121 150
165 157 153 150 139 154 184 251 281 294 290 243 205 216 180 72 92 77 58 42 51 16 149 164 154 168 170 206 223 239 133 73 223 191 98 17 22 79 13 65 99 29 90 139 136 128 122